Weather History for Buffalo, WY

Change the Weather History Date:

Wednesday, January 2, 2013

  Actual Average Record
Temperature  
Mean Temperature 20 °F 27 °F  
Max Temperature 28 °F 38 °F 58 °F (2008)
Min Temperature 11 °F 16 °F 3 °F (2002)
Degree Days  
Heating Degree Days 45 38  
Month to date heating degree days 86 76  
Since 1 July heating degree days 2811 3123  
Cooling Degree Days 0 0  
Month to date cooling degree days 0 0  
Year to date cooling degree days 0 0  
Moisture  
Dew Point 10 °F    
Average Humidity 62    
Maximum Humidity 88    
Minimum Humidity 35    
Precipitation  
Precipitation T in 0.01 in 0.01 in (2009)
Month to date precipitation T 0.02  
Year to date precipitation T 0.02  
Sea Level Pressure  
Sea Level Pressure 30.23 in    
Wind  
Wind Speed 18 mph (NNW)    
Max Wind Speed 38 mph    
Max Gust Speed 48 mph    
Visibility 7 miles    
Events Snow    
T = Trace of Precipitation, MM = Missing Value Source: NWS Daily Summary

Daily Weather History Graph

Daily Weather History Graph

Search for Another Location

Airport:

Trip Planner

Search our weather history database for the weather conditions in past years. The results will help you decide how hot, cold, wet, or windy it might be!

Date:

Astronomy

Jan. 02, 2013 Rise Set
Actual Time 7:43 AM MST 4:39 PM MST
Civil Twilight 7:09 AM MST 5:12 PM MST
Nautical Twilight 6:33 AM MST 5:49 PM MST
Astronomical Twilight 5:58 AM MST 6:24 PM MST
Moon 10:28 PM MST (1/2) 10:13 AM MST (1/2)
Length of Visible Light 10h 02m
Length of Day
8h 56m
Waning Gibbous, 74% of the Moon is Illuminated
Jan 2
Waning Gibbous
Jan 4
Last Quarter
Jan 11
New
Jan 18
First Quarter
Jan 26
Full

Hourly Weather History & Observations

Time (MST) Temp. Windchill Dew Point Humidity Pressure Visibility Wind Dir Wind Speed Gust Speed Precip Events Conditions
12:03 AM 24.8 °F 8.7 °F 19.4 °F 80% 30.12 in 1.8 mi NW 26.5 mph 39.1 mph 0.00 in Snow Light Snow
12:10 AM 24.8 °F 9.0 °F 17.6 °F 74% 30.12 in 2.5 mi NW 25.3 mph 39.1 mph 0.00 in Snow Light Snow
12:13 AM 24.8 °F 9.0 °F 17.6 °F 74% 30.12 in 3.0 mi NW 25.3 mph 38.0 mph 0.00 in Snow Light Snow
12:53 AM 24.1 °F 10.1 °F 18.0 °F 77% 30.22 in 9.0 mi NW 18.4 mph 26.5 mph 0.00 in   Overcast
2:53 AM 24.1 °F 9.4 °F 12.9 °F 62% 30.22 in 10.0 mi NNW 20.7 mph 25.3 mph N/A   Overcast
3:53 AM 23.0 °F 10.6 °F 12.0 °F 63% 30.24 in 10.0 mi NNW 13.8 mph 25.3 mph N/A   Clear
4:53 AM 24.1 °F 10.6 °F 12.0 °F 60% 30.25 in 10.0 mi NW 17.3 mph - N/A   Mostly Cloudy
5:53 AM 24.1 °F 9.4 °F 12.0 °F 60% 30.24 in 10.0 mi NW 20.7 mph 27.6 mph N/A   Overcast
6:53 AM 24.1 °F 8.3 °F 9.0 °F 53% 30.23 in 10.0 mi NW 24.2 mph 32.2 mph N/A   Clear
7:53 AM 21.9 °F 7.3 °F 5.0 °F 48% 30.24 in 10.0 mi NW 18.4 mph 24.2 mph N/A   Clear
8:53 AM 23.0 °F 8.3 °F 3.9 °F 44% 30.25 in 10.0 mi NNW 19.6 mph 27.6 mph N/A   Scattered Clouds
9:53 AM 26.1 °F 15.6 °F 5.0 °F 41% 30.25 in 10.0 mi NNW 11.5 mph 21.9 mph N/A   Clear
10:53 AM 28.0 °F 14.9 °F 5.0 °F 38% 30.23 in 10.0 mi NNW 19.6 mph 27.6 mph N/A   Clear
11:53 AM 26.1 °F 9.1 °F 10.9 °F 53% 30.21 in 2.0 mi NNW 32.2 mph 43.7 mph 0.00 in   Clear
12:15 PM 24.8 °F 6.6 °F 12.2 °F 59% 30.08 in 1.5 mi NNW 35.7 mph 47.2 mph 0.00 in   Clear
12:23 PM 24.8 °F 6.4 °F 12.2 °F 59% 30.08 in 1.0 mi NNW 36.8 mph 48.3 mph 0.00 in   Unknown
12:31 PM 24.8 °F 7.3 °F 12.2 °F 59% 30.08 in 1.8 mi NNW 32.2 mph 44.9 mph 0.00 in   Clear
12:38 PM 24.8 °F 6.8 °F 12.2 °F 59% 30.08 in 2.5 mi NNW 34.5 mph 46.0 mph 0.00 in Snow Blowing Snow
12:53 PM 25.0 °F 7.3 °F 10.9 °F 55% 30.19 in 2.5 mi NNW 33.4 mph 44.9 mph 0.00 in Snow Blowing Snow
1:11 PM 24.8 °F 7.1 °F 10.4 °F 54% 30.09 in 4.0 mi NNW 33.4 mph 43.7 mph 0.00 in Snow Blowing Snow
1:36 PM 24.8 °F 6.2 °F 10.4 °F 54% 30.09 in 2.5 mi NNW 38.0 mph 47.2 mph 0.00 in Snow Blowing Snow
1:53 PM 24.1 °F 5.6 °F 10.9 °F 57% 30.22 in 4.0 mi NNW 35.7 mph 47.2 mph 0.00 in Snow Blowing Snow
2:53 PM 24.1 °F 6.4 °F 10.0 °F 55% 30.25 in 7.0 mi NNW 32.2 mph 43.7 mph 0.00 in   Clear
3:53 PM 23.0 °F 7.6 °F 10.9 °F 60% 30.27 in 10.0 mi NNW 21.9 mph 36.8 mph 0.00 in   Clear
4:53 PM 21.0 °F 5.7 °F 10.0 °F 63% 30.31 in 10.0 mi North 19.6 mph 27.6 mph N/A   Clear
5:53 PM 19.0 °F 4.0 °F 10.9 °F 71% 30.34 in 10.0 mi North 17.3 mph 23.0 mph N/A   Clear
6:53 PM 17.1 °F 1.0 °F 9.0 °F 71% 30.35 in 10.0 mi North 18.4 mph - N/A   Clear
7:53 PM 15.1 °F 9.4 °F 8.1 °F 74% 30.38 in 10.0 mi SW 3.5 mph - N/A   Clear
8:53 PM 14.0 °F 6.5 °F 6.1 °F 71% 30.40 in 10.0 mi SSE 4.6 mph - N/A   Clear
9:53 PM 10.9 °F 4.7 °F 3.0 °F 70% 30.40 in 10.0 mi SSW 3.5 mph - N/A   Clear
10:53 PM 17.1 °F - 1.9 °F 52% 30.38 in 10.0 mi Calm Calm - N/A   Clear
11:53 PM 16.0 °F - 1.0 °F 52% 30.40 in 10.0 mi Calm Calm - N/A   Clear